Home   Weather   Vestby   Past weeks
Flag for Norway

Past Weather in Vestby, Norway — Yesterday and Last 2 Weeks

Now
45 °F

Light rain. Passing clouds.


Feels Like: 37 °F
Forecast: 35 / 27 °F
Wind: 16 mph from Southwest

Location: Rygge

Current Time: Dec 6, 2019 at 1:31:53 am

Latest Report: Dec 6, 2019 at 12:50 am


Visibility: N/A

Pressure: 29.15 "Hg

Humidity: 87%

Dew Point: 41 °F

Location of VestbyLocation

Past Weather in Vestby — Graph

°F

Vestby Temperature Yesterday

Maximum temperature yesterday: 46 °F (at 5:20 pm)
Minimum temperature yesterday: 43 °F (at 12:20 am)
Average temperature yesterday: 44 °F

High & Low Weather Summary for the Past Weeks

 TemperatureHumidityPressure
High46 °F (Nov 21, 6:50 pm)100% (Nov 21, 12:20 am)30.24 "Hg (Nov 21, 12:20 am)
Low14 °F (Nov 30, 10:50 pm)60% (Nov 29, 1:50 pm)29.12 "Hg (Nov 28, 11:15 am)
Average34 °F92%29.82 "Hg
* Reported Nov 21 12:20 am — Dec 6 12:20 am, Vestby. Weather by CustomWeather, © 2019

Note: Actual official high and low records may vary slightly from our data, if they occured in-between our weather recording intervals... More about our weather records

Vestby Weather History for the Previous 24 Hours

Scroll right to see more
 ConditionsComfort  
Time TempWeatherWind HumidityBarometerVisibility
12:20 am
Fri, Dec 6
43 °FLight rain. Overcast.17 mph93%29.18 "HgN/A
11:50 pm
Thu, Dec 5
45 °FPassing clouds.18 mph87%29.21 "HgN/A
11:20 pm45 °FRain. Passing clouds.21 mph87%29.24 "Hg6 mi
10:50 pm45 °FLight rain. Passing clouds.22 mph87%29.24 "HgN/A
10:20 pm46 °FLight rain. Partly cloudy.24 mph82%29.27 "HgN/A
9:50 pm46 °FMostly cloudy.24 mph76%29.27 "HgN/A
9:20 pm46 °FPassing clouds.24 mph76%29.30 "HgN/A
8:50 pm46 °FClear.24 mph76%29.30 "Hg10 mi
8:20 pm46 °FPassing clouds.24 mph76%29.30 "HgN/A
7:50 pm45 °FPassing clouds.22 mph81%29.33 "HgN/A
7:20 pm46 °FPassing clouds.22 mph76%29.33 "HgN/A
6:50 pm46 °FClear.21 mph71%29.36 "Hg10 mi
6:20 pm45 °FClear.21 mph76%29.36 "Hg10 mi
5:50 pm46 °FPassing clouds.21 mph71%29.36 "HgN/A
5:20 pm46 °FPassing clouds.24 mph71%29.36 "HgN/A
4:50 pm45 °FPassing clouds.23 mph76%29.36 "HgN/A
4:20 pm45 °FPassing clouds.24 mph76%29.39 "HgN/A
3:50 pm45 °FPassing clouds.21 mph71%29.39 "HgN/A
3:20 pm45 °FPassing clouds.22 mph71%29.42 "HgN/A
2:50 pm45 °FPassing clouds.24 mph71%29.42 "HgN/A
2:20 pm45 °FPassing clouds.24 mph71%29.42 "HgN/A
1:50 pm45 °FPassing clouds.25 mph71%29.45 "HgN/A
1:20 pm45 °FPassing clouds.23 mph71%29.45 "HgN/A
12:50 pm45 °FPassing clouds.23 mph71%29.47 "HgN/A
12:20 pm45 °FPassing clouds.24 mph71%29.50 "HgN/A
11:50 am45 °FPassing clouds.18 mph71%29.50 "HgN/A
11:20 am45 °FPassing clouds.16 mph71%29.53 "HgN/A
10:50 am43 °FPassing clouds.18 mph76%29.53 "HgN/A
10:20 am43 °FPassing clouds.18 mph76%29.53 "HgN/A
9:50 am43 °FPassing clouds.20 mph76%29.56 "HgN/A
9:20 am43 °FSunny.18 mph76%29.56 "Hg10 mi
8:50 am43 °FPassing clouds.16 mph81%29.56 "HgN/A
8:20 am43 °FPassing clouds.18 mph76%29.56 "HgN/A
7:50 am43 °FQuite cool.17 mph81%29.56 "HgN/A
7:20 am43 °FQuite cool.18 mph81%29.59 "HgN/A
6:50 am43 °FQuite cool.15 mph81%29.59 "HgN/A
6:20 am43 °FQuite cool.13 mph87%29.59 "HgN/A
5:50 am43 °FQuite cool.15 mph87%29.59 "HgN/A
5:20 am45 °FQuite cool.15 mph87%29.62 "HgN/A
4:50 am43 °FQuite cool.13 mph93%29.62 "HgN/A
4:20 am43 °FPassing clouds.14 mph93%29.62 "HgN/A
3:50 am43 °FPassing clouds.14 mph93%29.62 "HgN/A
3:20 am45 °FPassing clouds.14 mph87%29.65 "HgN/A
2:50 am45 °FOvercast.15 mph87%29.65 "HgN/A
2:20 am45 °FOvercast.17 mph87%29.65 "HgN/A
1:50 am43 °FMostly cloudy.15 mph93%29.65 "HgN/A
1:20 am43 °FMostly cloudy.16 mph93%29.68 "HgN/A
Weather by CustomWeather, © 2019

See weather overview

Advertising